Date,TemperatureHighF,TemperatureAvgF,TemperatureLowF,DewpointHighF,DewpointAvgF,DewpointLowF,HumidityHigh,HumidityAvg,HumidityLow,PressureMaxIn,PressureMinIn,WindSpeedMaxMPH,WindSpeedAvgMPH,GustSpeedMaxMPH,PrecipitationSumIn
2013-1-1,59.9,50.4,41.5,59.0,47.7,37.6,97,91,76,30.24,29.94,9,1,9,0.12
2013-1-2,45.1,40.5,36.2,37.6,32.4,30.1,87,73,57,30.34,30.22,7,1,10,0.00
2013-1-3,45.9,41.3,36.1,34.0,32.1,30.1,86,70,57,30.48,30.33,6,0,7,0.00
2013-1-4,42.6,40.0,37.2,39.4,37.0,33.1,94,89,69,30.53,30.40,6,0,7,0.18
2013-1-5,57.3,45.2,36.8,45.3,40.4,35.1,95,84,62,30.42,30.24,5,0,5,0.01
2013-1-6,60.0,44.7,34.1,37.3,33.7,30.5,96,70,35,30.42,30.30,7,1,10,0.00
2013-1-7,55.4,45.0,33.3,46.0,36.3,28.9,85,72,54,30.34,30.06,8,0,8,0.00
2013-1-8,56.6,51.6,47.6,56.0,50.6,46.3,98,96,85,30.06,29.83,7,1,8,0.68
2013-1-9,63.5,57.2,49.5,58.8,55.5,48.3,98,94,84,30.03,29.85,13,1,13,1.82
2013-1-10,66.7,54.0,44.0,50.1,45.8,43.2,98,76,46,30.06,29.98,16,1,16,0.01
2013-1-11,68.5,57.3,43.5,65.8,54.1,41.8,97,90,75,30.03,29.82,9,1,10,0.00
2013-1-12,73.0,67.2,52.5,67.5,62.8,41.1,97,86,61,29.84,29.63,10,1,12,0.00
2013-1-13,55.7,47.0,39.0,41.6,33.1,28.5,68,59,42,30.16,29.81,14,2,17,0.00
2013-1-14,52.6,42.2,35.5,36.2,30.2,24.2,73,62,51,30.25,30.11,12,2,12,0.00
2013-1-15,41.9,37.9,34.6,36.4,33.3,25.3,93,84,68,30.28,30.11,11,1,13,0.01
2013-1-16,54.2,41.0,31.2,27.4,22.0,14.4,73,50,21,30.39,30.22,12,1,14,0.00
2013-1-17,66.8,49.2,33.1,38.7,33.1,24.8,80,57,31,30.49,30.33,7,0,8,0.00
2013-1-18,64.1,49.3,35.8,38.7,34.6,31.0,83,60,34,30.53,30.33,7,0,8,0.00
2013-1-19,68.0,51.8,36.9,48.6,42.0,35.0,95,72,42,30.33,30.16,10,0,10,0.00
2013-1-20,70.1,54.4,39.7,55.7,46.4,37.8,96,77,47,30.27,30.10,8,0,9,0.00
2013-1-26,55.9,55.6,55.5,54.6,54.3,54.1,96,95,95,30.13,30.12,6,1,6,0.00
2013-1-27,76.2,71.3,69.5,65.9,65.4,64.8,88,82,68,29.97,29.92,12,2,12,0.00
2013-1-28,74.3,71.3,67.9,67.5,66.6,65.8,94,85,76,30.01,29.83,15,2,15,0.00
2013-1-29,84.5,70.4,55.4,67.7,56.9,27.0,91,66,33,29.84,29.46,16,2,20,0.00
2013-1-30,59.6,51.5,37.1,28.4,21.3,12.0,61,32,16,30.25,29.78,18,2,19,0.00
2013-1-31,66.9,48.6,32.4,32.8,23.5,18.0,71,42,17,30.34,30.20,11,1,12,0.00
2013-2-1,71.8,56.8,41.5,46.1,38.3,32.1,82,54,27,30.35,30.18,14,1,15,0.00
2013-2-2,75.0,58.5,44.2,56.5,48.3,40.8,91,71,44,30.26,30.15,7,0,8,0.00
2013-2-3,72.4,60.3,48.4,54.4,44.8,36.3,83,58,36,30.32,30.00,10,1,13,0.00
2013-2-4,75.8,63.4,56.0,60.5,56.7,51.9,93,80,53,30.00,29.78,10,1,10,0.01
2013-2-5,80.6,64.9,49.1,55.6,46.6,35.8,96,58,22,29.97,29.85,5,0,5,0.00
2013-2-6,74.7,64.9,58.8,61.9,58.4,52.4,93,80,59,29.96,29.80,9,1,9,0.01
2013-2-7,79.0,65.9,58.5,63.6,57.3,42.1,97,76,43,30.03,29.84,7,1,8,0.02
2013-2-8,71.1,59.5,47.7,47.9,38.6,30.7,77,49,24,30.20,30.03,11,1,12,0.00
2013-2-9,68.2,59.3,51.3,66.7,56.0,37.9,98,90,52,30.07,29.77,14,1,16,0.05
2013-2-10,68.9,64.3,57.1,66.8,45.9,29.8,98,57,26,29.99,29.73,12,1,12,0.06
2013-2-11,59.9,55.7,51.1,49.7,45.1,36.6,94,69,46,30.04,29.92,10,2,11,0.00
2013-2-12,73.3,59.5,50.7,56.2,44.5,23.5,97,66,21,30.04,29.81,13,1,13,0.02
2013-2-13,66.3,51.9,39.9,36.9,32.4,26.1,76,50,23,30.15,30.01,11,1,13,0.00
2013-2-14,70.1,52.7,34.7,40.8,36.8,30.9,87,58,32,30.15,30.00,10,0,10,0.00
2013-2-15,68.7,52.5,40.0,45.9,38.4,23.3,91,62,32,30.38,30.07,10,1,11,0.00
2013-2-16,65.8,49.5,31.5,30.5,27.1,22.6,74,44,24,30.48,30.24,9,1,10,0.00
2013-2-17,70.9,55.0,35.3,53.3,39.2,28.3,79,57,36,30.24,29.98,18,2,19,0.00
2013-2-18,81.5,66.6,58.8,61.0,48.8,25.9,87,59,21,30.04,29.82,13,1,15,0.00
2013-2-19,67.3,58.0,46.0,34.5,31.9,27.1,61,39,23,30.23,30.04,15,2,17,0.00
2013-2-20,67.6,58.9,53.4,64.7,51.3,26.8,94,78,30,30.11,29.67,13,2,14,0.01
2013-2-24,66.6,63.4,61.2,59.6,58.8,57.6,94,85,73,29.68,29.58,9,1,9,0.00
2013-2-25,63.6,56.8,46.7,60.6,36.3,15.6,97,52,17,29.88,29.56,22,4,23,0.00
2013-2-26,66.8,52.9,39.3,30.3,27.6,24.6,62,40,22,29.98,29.85,10,1,10,0.00
2013-2-27,65.4,53.5,42.4,35.6,29.9,23.3,70,42,23,30.23,29.88,15,1,16,0.00
2013-2-28,62.7,49.8,40.4,31.1,26.9,21.6,58,42,24,30.34,30.20,9,1,10,0.00
2013-3-1,71.0,52.4,33.7,29.4,23.1,9.9,68,37,11,30.31,30.11,14,1,14,0.00
2013-3-2,65.8,49.5,37.7,31.3,28.1,24.1,62,45,24,30.44,30.26,12,1,13,0.00
2013-3-3,43.5,42.3,39.8,30.7,29.2,27.6,64,59,55,30.27,30.25,1,0,1,0.00
2013-3-4,84.9,71.3,61.2,54.4,45.2,38.8,78,43,20,29.76,29.69,4,0,7,0.00
2013-3-5,68.1,56.9,41.5,55.1,29.6,13.2,90,41,15,30.35,29.75,17,2,17,0.00
2013-3-6,65.2,49.2,33.9,27.1,19.2,14.0,50,32,15,30.45,30.23,10,0,10,0.00
2013-3-7,73.8,57.6,40.3,55.4,46.3,27.5,83,67,45,30.24,30.08,13,1,16,0.00
2013-3-8,67.9,63.2,59.7,64.4,59.7,54.2,95,88,80,30.12,29.97,12,1,12,0.02
2013-3-9,77.3,67.2,63.0,68.1,63.6,60.0,97,89,70,29.99,29.58,20,2,21,0.14
2013-3-10,67.7,62.1,56.4,63.5,45.7,32.8,97,61,29,29.95,29.61,16,2,20,0.86
2013-3-11,71.0,69.3,68.3,29.1,28.0,26.8,22,21,20,30.05,30.00,6,2,8,0.00
2013-3-23,83.6,78.8,68.9,64.3,62.5,58.7,70,58,51,29.69,29.54,6,1,6,0.00
2013-3-27,65.5,62.5,60.0,50.2,48.3,47.1,70,60,52,30.20,30.16,11,2,14,0.00
2013-3-28,67.5,60.3,59.7,58.1,51.5,50.2,75,73,70,30.19,30.13,7,1,8,0.00
2013-3-30,83.3,78.4,71.8,64.2,62.1,60.8,76,58,48,29.92,29.86,8,1,9,0.00
2013-3-31,82.1,78.0,72.2,66.3,64.7,63.0,77,64,55,29.91,29.81,7,1,8,0.00
2013-4-9,85.1,74.9,70.1,69.9,68.3,66.4,88,81,60,29.66,29.51,13,2,13,0.00
2013-4-10,73.8,56.9,51.4,69.0,48.9,43.4,85,75,70,29.90,29.63,10,2,12,0.14
2013-4-11,72.7,58.8,48.6,45.0,43.1,41.3,81,58,33,29.96,29.78,11,1,11,0.04
2013-4-12,52.4,51.8,51.4,44.0,43.4,43.0,74,73,72,29.89,29.88,0,0,0,0.00
2013-4-13,55.1,55.1,55.0,48.4,48.4,48.3,78,78,78,29.92,29.91,0,0,0,0.00
2013-4-14,88.5,82.4,74.2,68.8,66.9,64.4,76,60,46,29.72,29.59,10,1,10,0.00
2013-4-18,73.5,61.4,54.7,69.9,56.5,47.9,93,84,66,29.86,29.61,11,2,12,0.21
2013-4-20,75.9,68.4,57.6,48.2,36.9,29.5,70,34,19,30.22,29.96,13,2,15,0.00
2013-4-21,82.0,66.3,52.6,59.3,53.4,47.6,84,66,40,30.12,29.95,13,1,13,0.00
2013-4-22,85.0,71.0,60.1,63.6,60.1,57.2,92,71,44,30.08,29.82,12,1,13,0.00
2013-4-23,79.0,68.5,55.1,67.5,60.5,43.9,89,76,59,30.03,29.81,11,1,11,0.00
2013-4-24,62.7,54.4,46.3,43.8,39.4,36.2,79,58,41,30.25,30.02,16,2,17,0.00
2013-4-25,68.5,61.3,56.5,51.0,44.5,40.4,67,54,42,30.31,30.16,11,1,11,0.00
2013-4-26,79.4,68.4,58.8,70.4,63.6,51.4,97,85,69,30.18,29.99,11,0,11,0.03
2013-4-27,81.9,72.8,65.9,69.7,67.3,64.0,94,84,62,30.05,29.87,13,0,13,0.49
2013-4-28,84.0,71.6,59.9,66.2,63.0,58.8,98,77,50,29.99,29.82,8,0,9,0.00
2013-4-29,86.8,73.1,65.6,67.3,65.3,61.6,96,80,44,29.90,29.71,16,1,16,0.50
2013-4-30,85.0,73.0,64.9,68.7,65.8,64.0,98,80,53,29.80,29.67,8,0,9,0.01
2013-5-1,87.9,76.5,66.0,70.1,67.4,64.2,96,75,53,29.89,29.74,8,1,9,0.00
2013-5-2,76.2,57.4,49.5,69.3,50.2,37.3,94,77,61,30.33,29.79,16,2,18,0.59
2013-5-3,69.4,56.1,44.5,38.3,34.6,30.3,66,47,25,30.36,30.08,14,1,14,0.00
2013-5-4,82.6,62.0,41.1,44.4,38.6,32.4,87,49,17,30.10,29.87,9,0,9,0.00
2013-5-5,81.5,65.7,50.1,48.3,44.0,39.3,74,48,24,30.12,29.96,7,0,8,0.00
2013-5-6,76.3,64.4,49.5,54.4,49.6,44.5,84,61,42,30.13,29.97,6,0,7,0.00
2013-5-7,85.8,69.7,51.1,61.1,53.8,47.9,90,61,30,30.07,29.89,10,1,11,0.00
2013-5-8,85.2,72.4,63.3,66.7,63.2,58.5,91,74,50,29.97,29.83,12,1,13,0.00
2013-5-9,80.5,73.1,63.2,72.3,67.9,58.8,95,84,74,29.94,29.78,12,1,12,0.06
2013-5-10,85.4,71.1,61.0,68.4,63.4,58.6,97,79,50,29.97,29.80,14,1,14,0.17
2013-5-11,81.9,71.4,62.0,63.2,59.1,54.0,91,67,45,30.12,29.96,10,1,10,0.00
2013-5-12,80.8,68.5,55.9,55.9,52.2,48.5,83,58,36,30.22,30.08,11,1,11,0.00
2013-5-13,85.6,71.2,53.4,60.3,53.6,47.7,83,57,34,30.24,30.11,10,0,10,0.00
2013-5-14,86.5,73.7,59.6,66.8,62.2,55.5,91,69,48,30.19,29.95,14,1,14,0.00
2013-5-15,89.0,76.2,69.9,72.5,69.1,66.6,92,80,56,30.05,29.77,14,1,17,0.00
2013-5-16,96.8,80.9,71.0,74.6,70.6,67.2,91,74,43,29.82,29.65,14,1,14,0.00
2013-5-17,96.8,81.9,73.7,75.9,71.7,69.4,90,74,43,29.83,29.72,9,1,10,0.00
2013-5-24,76.8,70.5,67.1,72.8,68.7,65.0,97,94,83,30.07,29.97,8,0,9,1.62
2013-5-25,81.8,72.3,67.2,71.7,69.3,66.5,99,91,68,30.13,29.98,10,1,11,5.81
2013-5-26,83.8,76.0,71.3,75.7,71.3,67.7,97,86,71,30.06,29.92,11,1,12,0.66
2013-5-27,90.0,78.0,70.9,74.4,71.0,68.2,94,80,57,30.00,29.80,12,1,13,0.00
2013-5-28,88.7,78.9,72.8,73.8,70.7,69.0,89,77,56,29.87,29.70,17,2,17,0.00
2013-5-29,85.0,77.6,73.2,73.5,71.5,69.6,91,82,67,29.85,29.66,20,2,21,0.00
2013-5-30,89.5,80.0,74.1,75.5,72.5,70.5,90,79,61,29.80,29.70,11,1,12,0.00
2013-5-31,93.6,81.5,74.1,77.1,73.7,71.2,92,78,55,29.84,29.69,12,1,13,0.00
2013-6-1,96.3,83.8,75.7,76.8,73.5,71.8,90,73,48,29.85,29.73,13,1,14,0.00
2013-6-2,89.3,77.3,66.0,73.5,66.2,60.1,97,72,39,30.00,29.84,12,1,12,0.20
2013-6-3,67.9,67.2,66.8,63.4,62.7,61.8,88,86,82,29.94,29.92,1,0,1,0.00
2013-6-11,74.3,72.6,70.1,73.0,71.4,66.5,97,96,88,29.98,29.92,3,0,4,0.41
2013-6-12,76.1,73.3,71.8,73.6,72.3,69.2,98,97,82,29.99,29.93,3,0,3,0.66
2013-6-13,90.3,76.8,72.5,78.5,73.8,69.6,98,91,62,30.02,29.89,8,0,15,0.10
2013-6-14,86.0,77.6,72.0,76.3,74.0,71.1,98,89,65,29.97,29.85,5,0,6,0.08
2013-6-15,81.7,76.4,75.1,76.4,74.9,73.9,98,95,81,29.96,29.88,4,0,4,0.00
2013-6-16,86.8,81.7,78.0,75.2,74.1,73.2,86,78,67,29.98,29.96,8,1,0,0.00
2013-6-17,86.3,83.8,80.4,74.4,73.3,70.3,76,71,62,29.88,29.80,7,1,8,0.00
2013-6-18,95.7,83.5,74.7,73.6,71.4,65.9,92,69,42,29.95,29.82,6,0,6,0.00
2013-6-19,95.7,84.3,75.0,74.4,71.6,63.3,91,68,38,29.94,29.83,11,1,11,0.00
2013-6-20,95.0,83.2,73.8,74.0,71.4,67.5,91,70,46,30.01,29.89,10,1,12,0.00
2013-6-21,89.3,79.2,75.9,75.2,73.3,71.2,91,83,58,30.03,29.97,10,1,10,0.00
2013-6-22,89.8,85.6,81.7,74.5,73.1,71.1,76,67,56,29.99,29.97,7,1,9,0.00
2013-6-25,97.5,90.6,78.7,72.0,70.1,67.1,77,53,38,29.93,29.80,13,2,14,0.00
2013-6-26,98.7,85.7,75.6,75.2,72.2,68.4,89,67,39,29.93,29.81,10,1,11,0.00
2013-6-27,101.3,85.8,74.3,73.7,68.8,59.3,90,61,28,29.97,29.84,11,1,11,0.00
2013-6-28,102.7,86.7,74.7,74.1,69.3,63.1,91,61,32,29.95,29.75,5,0,6,0.00
2013-6-29,107.3,90.6,72.6,74.4,66.5,59.5,87,50,24,29.83,29.67,13,0,13,0.00
2013-6-30,89.6,78.4,69.0,74.1,67.9,61.1,96,72,39,29.95,29.73,13,0,15,0.68
2013-7-1,89.5,77.9,68.4,67.7,61.1,56.2,83,58,36,29.97,29.83,9,0,9,0.00
2013-7-2,92.0,77.4,62.8,64.0,57.0,49.4,82,53,26,30.05,29.91,8,0,10,0.00
2013-7-3,96.7,79.9,64.1,64.7,52.8,43.9,68,44,18,29.99,29.84,8,0,8,0.00
2013-7-4,97.1,81.3,66.0,70.6,62.6,56.3,92,58,29,29.95,29.82,8,0,9,0.00
2013-7-5,96.8,83.2,68.7,72.8,65.8,59.6,94,60,31,29.94,29.77,9,0,10,0.00
2013-7-6,96.5,83.8,70.2,72.8,67.3,60.3,91,61,33,29.89,29.75,9,1,11,0.00
2013-7-7,97.0,82.3,73.7,75.4,72.2,68.0,94,74,43,29.92,29.82,15,1,16,0.00
2013-7-8,89.0,80.0,74.0,74.9,72.3,69.2,92,78,54,30.07,29.93,9,1,11,0.00
2013-7-9,97.7,84.4,74.6,74.9,72.4,68.1,94,70,40,30.11,29.95,11,1,11,0.00
2013-7-10,98.1,85.3,74.4,74.9,71.8,66.5,94,67,38,30.05,29.86,10,0,10,0.00
2013-7-11,91.8,79.9,74.6,74.0,72.2,69.8,92,78,51,29.97,29.93,6,0,6,0.00
2013-7-13,100.5,92.2,74.7,73.5,65.2,58.3,86,43,27,29.93,29.79,8,0,8,0.00
2013-7-14,99.0,83.3,74.8,73.9,68.5,63.9,83,63,35,29.86,29.77,15,1,17,0.00
2013-7-15,83.8,75.4,71.4,74.6,71.8,69.2,95,89,69,29.98,29.81,12,0,12,0.59
2013-7-16,87.9,75.1,71.0,75.5,72.1,69.2,97,91,64,30.08,29.96,13,0,13,0.84
2013-7-17,86.8,75.1,71.0,73.5,71.5,69.8,97,90,58,30.13,30.06,10,1,11,0.00
2013-7-18,80.3,76.7,74.1,70.2,69.4,68.5,87,78,68,30.01,29.98,1,0,1,0.00
2013-7-19,94.8,81.8,71.1,74.8,71.2,66.7,97,73,42,30.03,29.85,10,0,11,0.05
2013-7-20,95.2,82.9,72.1,74.4,70.8,66.5,97,70,42,29.96,29.79,9,0,9,0.00
2013-7-21,95.0,83.2,74.9,78.7,73.8,71.5,94,75,48,29.91,29.81,9,1,11,0.02
2013-7-22,96.0,85.2,77.2,76.6,73.8,69.1,91,71,44,29.94,29.82,9,1,11,0.00
2013-7-23,97.3,85.6,76.6,75.0,72.0,64.7,87,67,38,29.96,29.81,11,1,13,0.00
2013-7-24,81.3,77.6,76.0,74.3,73.4,72.5,90,87,79,29.91,29.86,9,0,12,0.00
2013-7-26,99.5,95.8,90.3,76.4,71.6,66.9,57,46,38,29.93,29.82,10,0,10,0.00
2013-7-27,91.7,86.0,79.7,77.2,75.1,72.7,84,71,56,29.92,29.84,8,1,8,0.02
2013-7-28,90.3,90.1,90.0,75.5,75.2,74.7,62,62,61,29.89,29.89,3,0,6,0.00
2013-8-1,99.3,92.2,85.2,68.6,66.5,65.3,57,44,35,29.90,29.83,6,1,6,0.00
2013-8-2,88.9,81.0,77.8,68.7,67.0,65.0,73,63,50,29.90,29.85,4,0,9,0.00
2013-8-3,100.2,95.9,86.9,71.3,68.7,65.9,59,42,35,29.97,29.85,9,1,10,0.00
2013-8-4,88.9,88.9,88.8,74.6,74.3,73.7,63,62,62,30.00,29.99,3,0,3,0.00
2013-8-6,94.3,87.8,82.4,72.0,70.9,69.4,71,58,45,29.85,29.75,12,2,12,0.00
2013-8-7,102.5,88.0,76.7,75.0,70.7,59.8,88,61,26,29.88,29.72,11,1,12,0.00
2013-8-8,102.6,87.4,76.3,74.7,70.4,54.8,85,61,26,29.86,29.71,12,1,13,0.00
2013-8-9,102.7,86.8,74.0,74.0,67.7,57.1,91,59,24,29.92,29.79,9,0,9,0.00
2013-8-10,101.5,85.1,73.2,77.5,71.6,66.7,92,68,34,29.99,29.85,10,1,15,0.27
2013-8-11,99.1,83.6,74.8,76.0,72.5,68.0,95,72,39,30.03,29.89,18,0,18,0.00
2013-8-12,96.7,84.5,73.2,73.1,70.8,67.0,93,67,41,30.02,29.88,9,0,9,0.00
2013-8-13,100.3,86.8,75.8,74.7,70.5,64.9,90,62,33,30.00,29.82,10,0,10,0.00
2013-8-14,92.0,80.6,75.3,73.7,71.8,68.7,90,76,48,29.95,29.89,5,0,5,0.00
2013-8-15,94.8,81.5,74.5,73.8,70.2,66.0,87,71,43,29.94,29.89,5,0,5,0.00
2013-8-16,98.8,94.2,85.2,73.6,69.0,63.1,67,45,33,29.97,29.84,8,1,13,0.00
2013-8-22,97.2,87.7,72.3,74.9,70.7,67.0,94,59,40,30.04,29.86,10,1,11,0.00
2013-8-23,98.0,85.6,74.0,75.1,70.0,64.2,93,63,37,29.97,29.83,10,1,10,0.00
2013-8-24,99.3,86.5,73.6,73.1,69.2,64.2,86,60,33,29.99,29.85,12,1,15,0.00
2013-8-25,96.4,84.2,72.9,72.8,69.1,65.7,82,63,38,30.03,29.92,11,1,13,0.00
2013-8-26,91.5,78.4,73.4,74.1,71.9,69.3,94,81,51,30.05,29.97,12,1,12,0.04
2013-8-27,91.6,80.1,73.1,75.2,71.6,68.7,94,77,50,30.07,29.97,12,1,12,0.00
2013-8-28,96.8,83.5,73.0,75.0,70.5,66.0,97,69,39,30.07,29.94,9,0,9,0.00
2013-8-29,99.3,85.1,71.6,75.3,69.4,64.5,96,63,35,30.05,29.89,6,0,6,0.00
2013-8-30,100.5,87.6,74.5,72.6,68.4,64.2,86,56,33,29.98,29.81,10,0,10,0.00
2013-8-31,100.0,86.5,72.7,72.9,69.3,66.4,89,59,36,29.89,29.75,9,0,9,0.00
2013-9-1,99.2,86.0,73.3,74.5,69.5,64.2,93,61,35,29.87,29.74,8,0,8,0.00
2013-9-2,100.0,86.3,74.9,75.1,69.9,63.1,94,62,33,29.92,29.75,9,0,11,0.00
2013-9-3,100.6,86.1,71.2,73.0,66.9,61.6,87,57,29,29.96,29.81,7,0,8,0.00
2013-9-4,101.5,86.0,77.5,71.6,69.9,66.6,79,61,34,30.00,29.87,10,0,13,0.00
2013-9-5,97.9,81.8,71.4,74.0,70.4,67.1,95,72,39,30.04,29.91,15,1,15,0.18
2013-9-6,95.5,82.8,71.8,75.9,71.1,66.4,95,71,40,30.04,29.88,10,0,10,0.00
2013-9-7,97.6,82.7,73.5,75.4,71.7,67.8,93,72,40,29.98,29.83,14,1,14,0.00
2013-9-8,92.2,79.1,72.6,77.3,72.0,68.2,96,80,51,29.93,29.82,12,0,12,0.45
2013-9-9,92.7,76.9,70.5,75.1,70.9,68.3,97,83,47,29.95,29.86,11,1,13,0.13
2013-9-10,88.2,77.5,72.1,74.9,71.8,69.5,96,84,58,30.01,29.93,13,1,13,0.00
2013-9-11,93.7,80.4,71.7,75.4,70.7,62.0,96,76,37,30.05,29.93,10,1,10,0.01
2013-9-12,94.5,81.8,70.5,74.1,68.6,60.1,96,68,34,30.02,29.85,8,1,9,0.00
2013-9-13,95.6,83.2,71.0,71.7,65.3,57.7,92,59,29,29.93,29.76,12,1,12,0.00
2013-9-14,94.8,81.0,68.7,72.9,67.1,64.3,93,66,38,29.89,29.78,13,1,13,0.06
2013-9-15,93.5,80.2,71.0,74.7,71.3,69.0,97,77,47,29.96,29.87,10,1,10,0.00
2013-9-16,78.6,74.1,71.0,76.1,71.3,69.0,97,91,76,30.00,29.90,12,0,12,0.65
2013-9-17,88.0,76.6,70.7,75.8,72.3,69.8,98,88,60,30.02,29.88,12,0,16,0.20
2013-9-18,90.7,78.4,72.1,75.3,72.4,69.6,98,84,52,29.98,29.83,11,0,13,0.35
2013-9-19,90.3,79.8,73.4,77.1,73.9,71.7,98,84,57,29.91,29.75,9,0,10,0.00
2013-9-20,79.9,75.2,70.2,77.9,73.3,68.6,97,94,87,29.82,29.71,14,1,14,0.76
2013-9-21,84.7,73.8,62.1,68.9,63.1,53.8,94,72,39,29.89,29.78,10,1,10,0.00
2013-9-22,86.1,71.2,57.4,57.5,52.0,46.6,79,54,26,29.88,29.74,8,0,8,0.00
2013-9-23,90.0,73.1,55.7,60.7,53.0,48.8,84,54,26,29.82,29.71,6,0,6,0.00
2013-9-24,96.4,78.4,61.9,65.6,59.3,56.1,82,56,29,29.89,29.77,7,0,7,0.00
2013-9-25,96.3,80.8,65.6,67.6,61.8,58.3,83,55,34,29.86,29.73,7,0,7,0.00
2013-9-26,91.8,79.7,66.1,73.5,67.3,58.3,95,68,41,29.86,29.75,11,1,17,0.00
2013-9-27,91.0,80.7,74.8,79.0,74.1,70.9,93,81,60,29.86,29.75,10,1,13,0.02
2013-9-28,89.1,80.5,75.9,76.7,74.8,73.0,92,83,62,29.92,29.81,9,1,12,0.00
2013-9-29,76.1,74.4,70.5,73.8,72.3,69.2,96,93,91,29.95,29.90,9,1,10,1.76
2013-10-2,86.8,81.2,77.1,73.3,70.8,68.9,88,72,56,29.87,29.80,8,1,9,1.08
2013-10-3,90.3,81.1,73.2,73.9,71.5,68.2,94,74,53,29.89,29.77,11,1,14,0.00
2013-10-4,91.0,79.9,72.5,73.7,71.0,69.0,94,76,50,29.88,29.77,12,1,12,0.00
2013-10-5,90.0,77.3,63.2,72.4,66.3,45.3,93,71,48,29.99,29.83,11,1,11,0.00
2013-10-6,79.3,65.6,53.7,55.2,48.0,40.2,94,58,26,30.13,29.98,10,1,10,0.18
2013-10-7,84.5,66.9,50.5,53.6,46.2,38.1,85,53,20,30.16,30.02,8,0,8,0.00
2013-10-8,84.3,68.8,51.8,54.7,49.7,47.1,86,55,29,30.07,29.95,7,0,7,0.00
2013-10-9,83.0,70.1,54.9,63.9,58.4,49.8,94,69,46,30.04,29.91,9,0,9,0.00
2013-10-10,85.9,74.2,63.7,68.4,64.6,60.8,93,74,51,30.00,29.83,10,1,10,0.00
2013-10-11,88.8,78.8,71.2,74.6,71.7,66.5,91,80,59,29.89,29.77,10,0,11,0.00
2013-10-12,90.8,80.9,75.3,75.3,73.6,70.6,93,80,55,29.96,29.84,8,0,8,0.02
2013-10-13,77.0,72.2,65.7,74.5,70.5,64.2,98,95,87,30.11,29.95,12,1,13,0.69
2013-10-14,72.0,71.7,71.3,71.1,70.8,70.4,97,97,97,30.05,30.00,6,0,6,0.00
2013-11-6,61.4,57.4,54.5,51.5,46.6,42.3,71,67,62,30.29,30.14,7,1,7,0.34
2013-11-7,62.9,54.0,47.2,44.8,39.9,34.0,77,60,37,30.45,30.28,7,1,8,0.00
2013-11-8,64.1,56.6,49.4,48.1,42.9,35.3,82,62,37,30.38,30.16,7,0,8,0.00
2013-11-9,70.2,61.1,53.8,59.4,54.8,46.6,94,80,66,30.19,30.10,5,0,6,0.13
2013-11-10,66.8,63.0,61.3,59.5,58.3,56.5,91,85,74,30.28,30.15,4,0,5,0.00
2013-11-11,75.6,64.4,56.8,57.9,55.7,52.7,93,75,51,30.25,30.13,2,0,2,0.00
2013-11-12,64.0,53.4,44.5,55.5,44.6,29.3,89,73,55,30.61,30.21,8,1,10,0.00
2013-11-13,56.7,43.0,35.3,32.2,28.1,26.1,75,57,34,30.62,30.43,3,0,6,0.00
2013-11-14,61.1,50.7,33.7,47.4,41.4,28.5,81,71,43,30.42,30.10,2,0,1,0.00
2013-11-15,75.9,67.1,49.7,59.0,55.8,47.5,93,69,54,30.06,29.86,2,0,0,0.00
2013-11-16,79.7,75.5,66.8,70.9,68.3,64.5,93,79,69,29.89,29.72,12,1,15,0.00
2013-11-17,86.5,79.5,71.1,71.1,69.0,66.1,94,72,54,29.85,29.75,3,0,4,0.00
2013-11-18,78.0,66.3,61.2,65.7,62.0,58.5,91,86,66,30.07,29.97,2,1,2,0.00
2013-11-19,68.9,63.9,56.5,60.1,53.3,46.0,80,69,51,30.11,29.97,4,0,5,0.00
2013-11-20,73.5,65.4,58.2,67.5,60.3,54.3,95,84,71,29.99,29.86,7,0,7,0.00
2013-11-21,74.3,71.6,69.2,71.0,69.5,67.7,97,93,89,30.01,29.90,4,0,4,0.02
2013-11-22,72.6,47.4,36.2,70.8,45.2,33.4,96,92,88,30.37,30.01,7,2,9,0.27
2013-11-23,41.9,39.4,36.7,38.2,36.6,34.6,93,90,85,30.48,30.37,8,2,8,0.01
2013-11-24,41.1,38.1,34.4,39.0,35.9,33.1,95,92,79,30.50,30.35,6,1,8,0.40
2013-11-25,41.5,36.6,34.7,39.4,35.3,33.5,96,95,89,30.33,30.10,3,0,3,0.49
2013-11-26,50.0,41.1,38.1,37.3,34.3,32.2,84,77,59,30.39,30.23,9,2,9,0.00
2013-11-27,51.5,42.0,37.1,30.8,28.0,23.1,77,59,34,30.50,30.37,5,0,6,0.00
2013-11-28,55.2,40.4,30.9,31.6,28.0,22.3,89,67,28,30.47,30.36,3,0,3,0.00
2013-11-29,61.9,48.4,33.3,50.8,42.6,29.1,96,81,67,30.51,30.36,2,0,3,0.00
2013-11-30,68.1,63.5,54.8,58.3,56.1,49.7,88,77,70,30.36,30.20,0,0,3,0.00
2013-12-1,69.7,62.4,57.6,61.0,57.9,55.0,93,85,74,30.19,29.98,2,0,3,0.00
2013-12-2,77.4,65.3,58.4,61.3,58.0,54.2,93,79,50,29.95,29.68,1,0,0,0.00
2013-12-3,83.5,66.5,55.6,55.4,49.9,45.0,94,61,30,29.69,29.60,2,0,0,0.00
2013-12-4,61.4,59.2,54.6,59.7,56.8,50.5,96,92,79,29.77,29.66,1,0,1,0.00
2013-12-5,66.9,50.0,34.2,66.3,46.7,29.7,98,88,72,30.05,29.77,9,1,10,0.01
2013-12-6,40.5,35.5,33.3,32.5,29.1,27.0,88,78,73,30.33,30.22,8,2,10,0.02
2013-12-7,31.7,28.3,27.5,25.6,21.6,20.9,78,76,73,30.48,30.32,3,1,10,0.00
2013-12-8,41.8,34.9,30.8,38.2,30.7,26.8,87,85,82,30.23,30.11,0,0,6,0.00
2013-12-9,41.9,39.1,36.2,40.6,37.1,33.6,95,92,90,30.33,30.09,0,0,6,0.05
2013-12-10,48.6,36.0,28.0,27.8,26.6,25.3,94,71,40,30.53,30.36,1,0,6,0.00
2013-12-11,60.3,41.6,29.1,34.9,31.1,25.2,87,69,34,30.54,30.36,0,0,0,0.00
2013-12-12,52.2,42.7,35.9,37.0,33.1,29.6,78,69,56,30.59,30.36,1,0,2,0.00
2013-12-13,49.3,47.6,45.5,48.2,42.5,35.6,97,83,67,30.33,29.91,3,0,3,0.03
2013-12-14,57.3,48.4,41.2,47.8,41.5,32.8,98,79,56,30.32,29.93,3,1,3,0.00
2013-12-15,58.2,44.4,32.8,34.1,31.0,27.6,83,61,39,30.43,30.30,0,0,1,0.00
2013-12-16,64.6,43.7,32.3,34.6,32.2,28.3,85,66,30,30.34,30.22,1,0,1,0.00
2013-12-17,68.5,50.9,38.3,45.3,38.7,33.3,91,66,36,30.35,30.24,0,0,0,0.00
2013-12-18,66.9,54.6,41.2,52.5,46.8,37.9,97,76,56,30.30,30.06,3,0,4,0.00
2013-12-19,73.4,65.1,58.2,62.5,59.6,53.4,93,83,66,30.04,29.79,9,1,9,0.00
2013-12-20,72.9,68.0,62.8,66.5,64.5,61.3,95,89,78,29.82,29.58,7,1,7,0.00
2013-12-21,70.5,65.1,50.4,66.7,54.8,37.3,97,73,32,29.79,29.53,5,1,6,0.37
2013-12-22,58.1,47.3,40.8,44.3,38.2,31.4,86,71,58,30.36,29.82,2,0,6,0.00
2013-12-23,58.1,37.6,30.3,31.7,28.5,26.5,89,73,30,30.55,30.37,2,0,6,0.00
2013-12-24,58.7,43.0,32.5,38.8,30.9,25.7,86,66,29,30.56,30.30,2,0,6,0.00
2013-12-25,57.1,53.3,42.4,49.2,46.9,40.2,92,79,70,30.38,30.27,1,0,6,0.00
2013-12-26,52.1,47.4,44.5,45.9,41.0,37.4,93,79,69,30.43,30.33,3,0,6,0.00
2013-12-27,53.8,48.9,44.3,48.5,46.0,43.0,96,90,78,30.44,30.33,2,0,6,0.27
2013-12-28,55.7,48.9,43.9,46.6,44.3,42.6,95,85,67,30.31,30.05,1,0,6,0.00
2013-12-29,62.7,51.4,37.1,52.0,46.0,32.4,98,83,64,30.25,29.99,7,1,8,0.01
2013-12-30,43.4,37.7,35.5,32.9,29.5,26.0,80,73,57,30.42,30.23,3,1,0,0.00
2013-12-31,52.6,44.2,35.3,33.4,31.0,29.5,88,62,41,30.48,30.30,2,0,0,0.00
2014-1-1,57.6,48.1,36.5,49.0,40.9,31.7,90,77,68,30.26,30.05,1,0,0,0.00
2014-1-2,52.2,45.6,33.5,48.0,32.9,27.1,94,63,41,30.47,30.14,6,2,0,0.00